Weather in Abdrakhmanovo

Russia / Orenburg Oblast     54°02′25″N   53°30′02″E
temp.,
°C
wind,
m/s
gust,
m/s
humid.,
%
clouds,
%
prec.,
mm/h
press.,
hPa
HPBL,
m
26 february, fri
fri2623:00−21sse61097100 0.2 1027341
02:00−21s61095100 0.3 1025416
05:00−21sse61095100 0.4 1024394
08:00−21sse51094100 0.1 1023384
11:00−20sse61194100 0.1 1022365
14:00−18sse61092100 0.0 1022422
17:00−18sse61091100 0.0 1022469
20:00−20sse6149496 0.0 1019352
27 february, sat
sat2723:00−18sse8159297 0.0 1016445
02:00−15sse101793100 0.1 1010573
05:00−13sse101894100 3.0 1006640
08:00−12sse81593100 2.8 1002585
11:00−9sse71294100 3.4 1001495
14:00−5sse5895100 0.9 1000347
17:00−1s4798100 1.9 999321
20:000sw4798100 1.0 998327
28 february, sun
sun2823:00−3ssw349899 1.5 999101
02:00−3ssw2298100 0.3 99851
05:00−3ssw2298100 0.7 99923
08:00−4n2298100 0.6 99955
11:00−9n579598 0.8 1001213
14:00−9n589488 0.1 1003311
17:00−11n599393 0.3 1005347
20:00−14nnw499594 0.1 1008262
1 march, mon
mon123:00−19nnw339793 0.1 101146
02:00−20nnw2210094 0.0 101320
05:00−21nnw229996 0.0 101520
08:00−23nnw239999 0.0 101726
11:00−20n3597100 0.0 1019219
14:00−17nnw359499 0.0 1020300
17:00−16n359395 0.0 1021290
20:00−21n239824 0.0 102220
2 march, tue
tue223:00−24wnw0110012 0.0 102220
02:00−23sw12970 0.0 102120
05:00−23ssw23980 0.0 102022
08:00−23ssw349952 0.0 101777
11:00−18ssw6109576 0.0 1015292
14:00−15ssw61194100 0.3 1012415
17:00−13ssw61194100 1.2 1009550
20:00−13ssw61094100 0.6 1007376